Time,TemperatureF,DewpointF,PressureIn,WindDirection,WindDirectionDegrees,WindSpeedMPH,WindSpeedGustMPH,Humidity,HourlyPrecipIn,Conditions,Clouds,dailyrainin,SoftwareType,DateUTC
2013-06-28 00:03:00,85.0,80.7,29.91,West,262,2.0,4.0,87,0.00,,,0.00,Wunderground v.1.15,2013-06-28 05:03:00,
2013-06-28 00:08:00,84.9,80.6,29.91,West,267,0.0,4.0,87,0.00,,,0.00,Wunderground v.1.15,2013-06-28 05:08:00,
2013-06-28 00:14:00,84.8,80.8,29.91,West,271,2.0,2.0,88,0.00,,,0.00,Wunderground v.1.15,2013-06-28 05:14:00,
2013-06-28 00:20:00,84.7,80.7,29.91,West,272,2.0,2.0,88,0.00,,,0.00,Wunderground v.1.15,2013-06-28 05:20:00,
2013-06-28 00:26:00,84.7,81.1,29.91,WSW,245,2.0,4.0,89,0.00,,,0.00,Wunderground v.1.15,2013-06-28 05:26:00,
2013-06-28 00:32:00,84.7,81.1,29.91,West,271,1.0,2.0,89,0.00,,,0.00,Wunderground v.1.15,2013-06-28 05:32:00,
2013-06-28 00:38:00,84.7,81.1,29.90,SSW,212,1.0,2.0,89,0.00,,,0.00,Wunderground v.1.15,2013-06-28 05:38:00,
2013-06-28 00:44:00,84.8,81.2,29.91,WSW,246,3.0,4.0,89,0.00,,,0.00,Wunderground v.1.15,2013-06-28 05:44:00,
2013-06-28 00:49:00,84.8,81.2,29.91,West,264,2.0,4.0,89,0.00,,,0.00,Wunderground v.1.15,2013-06-28 05:49:00,
2013-06-28 00:55:00,84.8,81.5,29.91,WNW,284,1.0,3.0,90,0.00,,,0.00,Wunderground v.1.15,2013-06-28 05:55:00,
2013-06-28 01:01:00,84.8,81.5,29.91,West,259,2.0,6.0,90,0.00,,,0.00,Wunderground v.1.15,2013-06-28 06:01:00,
2013-06-28 01:07:00,84.8,81.5,29.91,WSW,256,1.0,6.0,90,0.00,,,0.00,Wunderground v.1.15,2013-06-28 06:07:00,
2013-06-28 01:13:00,84.7,81.8,29.91,West,274,3.0,3.0,91,0.00,,,0.00,Wunderground v.1.15,2013-06-28 06:13:00,
2013-06-28 01:19:00,84.6,81.7,29.91,West,263,1.0,3.0,91,0.00,,,0.00,Wunderground v.1.15,2013-06-28 06:19:00,
2013-06-28 01:25:00,84.4,81.5,29.91,WSW,256,2.0,3.0,91,0.00,,,0.00,Wunderground v.1.15,2013-06-28 06:25:00,
2013-06-28 01:30:00,84.3,81.4,29.91,West,264,1.0,2.0,91,0.00,,,0.00,Wunderground v.1.15,2013-06-28 06:30:00,
2013-06-28 01:36:00,84.2,81.3,29.91,WSW,240,3.0,3.0,91,0.00,,,0.00,Wunderground v.1.15,2013-06-28 06:36:00,
2013-06-28 01:42:00,84.1,81.2,29.91,WSW,256,4.0,4.0,91,0.00,,,0.00,Wunderground v.1.15,2013-06-28 06:42:00,
2013-06-28 01:48:00,84.1,81.2,29.91,West,260,2.0,4.0,91,0.00,,,0.00,Wunderground v.1.15,2013-06-28 06:48:00,
2013-06-28 01:54:00,84.0,81.1,29.91,West,268,2.0,2.0,91,0.00,,,0.00,Wunderground v.1.15,2013-06-28 06:54:00,
2013-06-28 02:00:00,83.9,81.0,29.92,WSW,255,5.0,5.0,91,0.00,,,0.00,Wunderground v.1.15,2013-06-28 07:00:00,
2013-06-28 02:05:00,83.9,81.0,29.92,West,262,2.0,6.0,91,0.00,,,0.00,Wunderground v.1.15,2013-06-28 07:05:00,
2013-06-28 02:10:00,83.8,80.9,29.91,WNW,284,5.0,6.0,91,0.00,,,0.00,Wunderground v.1.15,2013-06-28 07:10:00,
2013-06-28 02:15:00,83.7,81.1,29.91,WSW,257,1.0,7.0,92,0.00,,,0.00,Wunderground v.1.15,2013-06-28 07:15:00,
2013-06-28 02:20:00,83.5,80.9,29.91,West,266,1.0,2.0,92,0.00,,,0.00,Wunderground v.1.15,2013-06-28 07:20:00,
2013-06-28 02:25:00,83.4,80.8,29.90,WSW,256,0.0,4.0,92,0.00,,,0.00,Wunderground v.1.15,2013-06-28 07:25:00,
2013-06-28 02:30:00,83.3,80.7,29.90,West,260,2.0,3.0,92,0.00,,,0.00,Wunderground v.1.15,2013-06-28 07:30:00,
2013-06-28 02:35:00,83.2,80.6,29.90,WNW,295,2.0,10.0,92,0.00,,,0.00,Wunderground v.1.15,2013-06-28 07:35:00,
2013-06-28 02:40:00,83.2,80.6,29.90,SW,235,2.0,4.0,92,0.00,,,0.00,Wunderground v.1.15,2013-06-28 07:40:00,
2013-06-28 02:45:00,83.2,81.0,29.90,WNW,288,4.0,6.0,93,0.00,,,0.00,Wunderground v.1.15,2013-06-28 07:45:00,
2013-06-28 02:50:00,83.2,81.0,29.90,WNW,287,4.0,4.0,93,0.00,,,0.00,Wunderground v.1.15,2013-06-28 07:50:00,
2013-06-28 02:55:00,83.2,81.0,29.90,West,271,3.0,9.0,93,0.00,,,0.00,Wunderground v.1.15,2013-06-28 07:55:00,
2013-06-28 03:00:00,83.1,80.9,29.90,West,280,3.0,5.0,93,0.00,,,0.00,Wunderground v.1.15,2013-06-28 08:00:00,
2013-06-28 03:05:00,83.1,80.9,29.90,WSW,245,4.0,10.0,93,0.00,,,0.00,Wunderground v.1.15,2013-06-28 08:05:00,
2013-06-28 03:10:00,83.0,80.8,29.90,WSW,252,3.0,6.0,93,0.00,,,0.00,Wunderground v.1.15,2013-06-28 08:10:00,
2013-06-28 03:15:00,82.9,80.7,29.89,WSW,252,4.0,9.0,93,0.00,,,0.00,Wunderground v.1.15,2013-06-28 08:15:00,
2013-06-28 03:20:00,82.9,80.7,29.88,West,278,3.0,5.0,93,0.00,,,0.00,Wunderground v.1.15,2013-06-28 08:20:00,
2013-06-28 03:25:00,82.9,80.7,29.89,West,272,6.0,8.0,93,0.00,,,0.00,Wunderground v.1.15,2013-06-28 08:25:00,
2013-06-28 03:30:00,82.8,80.6,29.88,West,272,2.0,4.0,93,0.00,,,0.00,Wunderground v.1.15,2013-06-28 08:30:00,
2013-06-28 03:35:00,82.8,80.9,29.88,WNW,300,4.0,6.0,94,0.00,,,0.00,Wunderground v.1.15,2013-06-28 08:35:00,
2013-06-28 03:40:00,82.7,80.8,29.88,WSW,240,3.0,5.0,94,0.00,,,0.00,Wunderground v.1.15,2013-06-28 08:40:00,
2013-06-28 03:45:00,82.8,80.9,29.88,West,260,1.0,10.0,94,0.00,,,0.00,Wunderground v.1.15,2013-06-28 08:45:00,
2013-06-28 03:50:00,82.8,80.9,29.88,West,266,3.0,8.0,94,0.00,,,0.00,Wunderground v.1.15,2013-06-28 08:50:00,
2013-06-28 03:55:00,82.7,80.8,29.88,West,266,3.0,10.0,94,0.00,,,0.00,Wunderground v.1.15,2013-06-28 08:55:00,
2013-06-28 04:00:00,82.7,80.8,29.88,West,272,5.0,9.0,94,0.00,,,0.00,Wunderground v.1.15,2013-06-28 09:00:00,
2013-06-28 04:05:00,82.7,80.8,29.88,West,270,2.0,9.0,94,0.00,,,0.00,Wunderground v.1.15,2013-06-28 09:05:00,
2013-06-28 04:10:00,82.5,80.9,29.88,West,277,2.0,3.0,95,0.00,,,0.00,Wunderground v.1.15,2013-06-28 09:10:00,
2013-06-28 04:15:00,82.4,80.8,29.88,West,263,2.0,7.0,95,0.00,,,0.00,Wunderground v.1.15,2013-06-28 09:15:00,
2013-06-28 04:20:00,82.4,80.8,29.88,West,271,4.0,6.0,95,0.00,,,0.00,Wunderground v.1.15,2013-06-28 09:20:00,
2013-06-28 04:25:00,82.3,80.7,29.88,West,278,2.0,9.0,95,0.00,,,0.00,Wunderground v.1.15,2013-06-28 09:25:00,
2013-06-28 04:30:00,82.3,80.7,29.88,West,259,4.0,6.0,95,0.00,,,0.00,Wunderground v.1.15,2013-06-28 09:30:00,
2013-06-28 04:35:00,82.3,80.7,29.88,WSW,242,3.0,8.0,95,0.00,,,0.00,Wunderground v.1.15,2013-06-28 09:35:00,
2013-06-28 04:40:00,82.3,80.4,29.88,WSW,248,5.0,6.0,94,0.00,,,0.00,Wunderground v.1.15,2013-06-28 09:40:00,
2013-06-28 04:45:00,82.2,80.6,29.88,West,266,3.0,7.0,95,0.00,,,0.00,Wunderground v.1.15,2013-06-28 09:45:00,
2013-06-28 04:50:00,82.1,80.5,29.88,West,271,4.0,5.0,95,0.00,,,0.00,Wunderground v.1.15,2013-06-28 09:50:00,
2013-06-28 04:55:00,82.1,80.5,29.89,West,270,2.0,6.0,95,0.00,,,0.00,Wunderground v.1.15,2013-06-28 09:55:00,
2013-06-28 05:00:00,82.1,80.5,29.89,West,280,6.0,6.0,95,0.00,,,0.00,Wunderground v.1.15,2013-06-28 10:00:00,
2013-06-28 05:05:00,82.1,80.5,29.89,WNW,297,3.0,7.0,95,0.00,,,0.00,Wunderground v.1.15,2013-06-28 10:05:00,
2013-06-28 05:10:00,82.0,80.4,29.89,WNW,288,2.0,5.0,95,0.00,,,0.00,Wunderground v.1.15,2013-06-28 10:10:00,
2013-06-28 05:15:00,81.9,80.0,29.89,WSW,250,3.0,8.0,94,0.00,,,0.00,Wunderground v.1.15,2013-06-28 10:15:00,
2013-06-28 05:20:00,82.0,80.1,29.89,West,280,3.0,4.0,94,0.00,,,0.00,Wunderground v.1.15,2013-06-28 10:20:00,
2013-06-28 05:26:00,82.0,80.1,29.89,West,269,4.0,8.0,94,0.00,,,0.00,Wunderground v.1.15,2013-06-28 10:26:00,
2013-06-28 05:31:00,82.0,80.1,29.89,WNW,296,5.0,6.0,94,0.00,,,0.00,Wunderground v.1.15,2013-06-28 10:31:00,
2013-06-28 05:36:00,82.1,80.2,29.89,West,266,8.0,8.0,94,0.00,,,0.00,Wunderground v.1.15,2013-06-28 10:36:00,
2013-06-28 05:41:00,82.1,79.9,29.89,West,276,4.0,6.0,93,0.00,,,0.00,Wunderground v.1.15,2013-06-28 10:41:00,
2013-06-28 05:46:00,82.1,79.9,29.89,WNW,284,4.0,8.0,93,0.00,,,0.00,Wunderground v.1.15,2013-06-28 10:46:00,
2013-06-28 05:51:00,82.1,79.9,29.89,West,277,3.0,6.0,93,0.00,,,0.00,Wunderground v.1.15,2013-06-28 10:51:00,
2013-06-28 05:56:00,82.0,79.8,29.89,WNW,300,7.0,9.0,93,0.00,,,0.00,Wunderground v.1.15,2013-06-28 10:56:00,
2013-06-28 06:01:00,82.0,79.8,29.89,West,264,4.0,6.0,93,0.00,,,0.00,Wunderground v.1.15,2013-06-28 11:01:00,
2013-06-28 06:06:00,81.9,80.0,29.89,WNW,286,3.0,7.0,94,0.00,,,0.00,Wunderground v.1.15,2013-06-28 11:06:00,
2013-06-28 06:11:00,81.8,79.9,29.89,WNW,288,6.0,8.0,94,0.00,,,0.00,Wunderground v.1.15,2013-06-28 11:11:00,
2013-06-28 06:16:00,81.8,79.9,29.89,WNW,302,5.0,9.0,94,0.00,,,0.00,Wunderground v.1.15,2013-06-28 11:16:00,
2013-06-28 06:21:00,81.7,79.8,29.88,WNW,300,5.0,7.0,94,0.00,,,0.00,Wunderground v.1.15,2013-06-28 11:21:00,
2013-06-28 06:26:00,81.8,79.6,29.89,WNW,300,3.0,8.0,93,0.00,,,0.00,Wunderground v.1.15,2013-06-28 11:26:00,
2013-06-28 06:31:00,81.8,79.6,29.89,WNW,294,5.0,6.0,93,0.00,,,0.00,Wunderground v.1.15,2013-06-28 11:31:00,
2013-06-28 06:36:00,82.0,79.8,29.89,WNW,288,4.0,8.0,93,0.00,,,0.00,Wunderground v.1.15,2013-06-28 11:36:00,
2013-06-28 06:41:00,82.1,79.9,29.89,WNW,290,6.0,10.0,93,0.00,,,0.00,Wunderground v.1.15,2013-06-28 11:41:00,
2013-06-28 06:46:00,82.2,80.0,29.90,NW,314,6.0,11.0,93,0.00,,,0.00,Wunderground v.1.15,2013-06-28 11:46:00,
2013-06-28 06:51:00,82.2,80.0,29.90,West,281,7.0,9.0,93,0.00,,,0.00,Wunderground v.1.15,2013-06-28 11:51:00,
2013-06-28 06:56:00,82.3,80.1,29.90,NW,312,7.0,11.0,93,0.00,,,0.00,Wunderground v.1.15,2013-06-28 11:56:00,
2013-06-28 07:01:00,82.3,80.1,29.90,WNW,300,7.0,12.0,93,0.00,,,0.00,Wunderground v.1.15,2013-06-28 12:01:00,
2013-06-28 07:06:00,82.0,79.8,29.90,WNW,291,8.0,15.0,93,0.00,,,0.00,Wunderground v.1.15,2013-06-28 12:06:00,
2013-06-28 07:11:00,82.0,79.8,29.90,WNW,284,8.0,11.0,93,0.00,,,0.00,Wunderground v.1.15,2013-06-28 12:11:00,
2013-06-28 07:16:00,82.0,79.4,29.91,WNW,291,7.0,12.0,92,0.00,,,0.00,Wunderground v.1.15,2013-06-28 12:16:00,
2013-06-28 07:21:00,82.0,78.8,29.91,WNW,294,10.0,14.0,90,0.00,,,0.00,Wunderground v.1.15,2013-06-28 12:21:00,
2013-06-28 07:26:00,82.1,78.5,29.91,NW,316,4.0,14.0,89,0.00,,,0.00,Wunderground v.1.15,2013-06-28 12:26:00,
2013-06-28 07:31:00,82.1,78.2,29.91,WNW,290,11.0,12.0,88,0.00,,,0.00,Wunderground v.1.15,2013-06-28 12:31:00,
2013-06-28 07:36:00,82.0,78.4,29.92,NW,318,4.0,12.0,89,0.00,,,0.00,Wunderground v.1.15,2013-06-28 12:36:00,
2013-06-28 07:41:00,82.0,78.1,29.92,NNW,333,6.0,16.0,88,0.00,,,0.00,Wunderground v.1.15,2013-06-28 12:41:00,
2013-06-28 07:46:00,82.0,78.4,29.92,WNW,302,3.0,16.0,89,0.00,,,0.00,Wunderground v.1.15,2013-06-28 12:46:00,
2013-06-28 07:51:00,82.1,78.5,29.92,NW,318,7.0,8.0,89,0.00,,,0.00,Wunderground v.1.15,2013-06-28 12:51:00,
2013-06-28 07:56:00,82.0,78.1,29.92,WNW,289,12.0,13.0,88,0.00,,,0.00,Wunderground v.1.15,2013-06-28 12:56:00,
2013-06-28 08:01:00,82.0,78.1,29.92,NW,314,3.0,10.0,88,0.00,,,0.00,Wunderground v.1.15,2013-06-28 13:01:00,
2013-06-28 08:06:00,82.1,78.2,29.92,WNW,300,5.0,10.0,88,0.00,,,0.00,Wunderground v.1.15,2013-06-28 13:06:00,
2013-06-28 08:11:00,82.1,78.2,29.92,WNW,293,8.0,10.0,88,0.00,,,0.00,Wunderground v.1.15,2013-06-28 13:11:00,
2013-06-28 08:16:00,82.2,78.3,29.92,WNW,302,5.0,12.0,88,0.00,,,0.00,Wunderground v.1.15,2013-06-28 13:16:00,
2013-06-28 08:21:00,82.2,77.9,29.92,North,3,7.0,16.0,87,0.00,,,0.00,Wunderground v.1.15,2013-06-28 13:21:00,
2013-06-28 08:26:00,82.4,78.1,29.92,North,360,6.0,16.0,87,0.00,,,0.00,Wunderground v.1.15,2013-06-28 13:26:00,
2013-06-28 08:31:00,82.7,78.1,29.91,WNW,302,6.0,8.0,86,0.00,,,0.00,Wunderground v.1.15,2013-06-28 13:31:00,
2013-06-28 08:36:00,83.0,78.4,29.92,WNW,298,5.0,10.0,86,0.00,,,0.00,Wunderground v.1.15,2013-06-28 13:36:00,
2013-06-28 08:41:00,83.3,78.3,29.91,WNW,297,6.0,9.0,85,0.00,,,0.00,Wunderground v.1.15,2013-06-28 13:41:00,
2013-06-28 08:46:00,83.3,78.3,29.92,WNW,294,5.0,10.0,85,0.00,,,0.00,Wunderground v.1.15,2013-06-28 13:46:00,
2013-06-28 08:51:00,83.5,78.2,29.91,West,276,6.0,14.0,84,0.00,,,0.00,Wunderground v.1.15,2013-06-28 13:51:00,
2013-06-28 08:56:00,83.8,78.4,29.91,WNW,300,4.0,14.0,84,0.00,,,0.00,Wunderground v.1.15,2013-06-28 13:56:00,
2013-06-28 09:01:00,84.2,78.5,29.92,WNW,297,10.0,12.0,83,0.00,,,0.00,Wunderground v.1.15,2013-06-28 14:01:00,
2013-06-28 09:06:00,84.1,78.0,29.91,West,274,11.0,12.0,82,0.00,,,0.00,Wunderground v.1.15,2013-06-28 14:06:00,
2013-06-28 09:11:00,84.0,78.3,29.91,WNW,294,10.0,12.0,83,0.00,,,0.00,Wunderground v.1.15,2013-06-28 14:11:00,
2013-06-28 09:16:00,84.3,78.6,29.91,WNW,290,4.0,12.0,83,0.00,,,0.00,Wunderground v.1.15,2013-06-28 14:16:00,
2013-06-28 09:21:00,84.7,78.6,29.91,NW,315,7.0,10.0,82,0.00,,,0.00,Wunderground v.1.15,2013-06-28 14:21:00,
2013-06-28 09:26:00,84.9,78.8,29.90,WNW,294,6.0,10.0,82,0.00,,,0.00,Wunderground v.1.15,2013-06-28 14:26:00,
2013-06-28 09:31:00,85.2,78.3,29.90,West,272,10.0,11.0,80,0.00,,,0.00,Wunderground v.1.15,2013-06-28 14:31:00,
2013-06-28 09:36:00,85.3,78.8,29.90,West,271,5.0,11.0,81,0.00,,,0.00,Wunderground v.1.15,2013-06-28 14:36:00,
2013-06-28 09:41:00,85.4,78.5,29.90,WNW,295,9.0,9.0,80,0.00,,,0.00,Wunderground v.1.15,2013-06-28 14:41:00,
2013-06-28 09:46:00,85.6,78.3,29.90,WNW,291,6.0,12.0,79,0.00,,,0.00,Wunderground v.1.15,2013-06-28 14:46:00,
2013-06-28 09:51:00,86.0,78.7,29.90,NNW,335,5.0,9.0,79,0.00,,,0.00,Wunderground v.1.15,2013-06-28 14:51:00,
2013-06-28 09:56:00,85.9,79.0,29.90,West,280,4.0,9.0,80,0.00,,,0.00,Wunderground v.1.15,2013-06-28 14:56:00,
2013-06-28 10:01:00,86.3,79.0,29.90,NNW,333,8.0,8.0,79,0.00,,,0.00,Wunderground v.1.15,2013-06-28 15:01:00,
2013-06-28 10:06:00,86.6,78.9,29.90,NW,304,9.0,12.0,78,0.00,,,0.00,Wunderground v.1.15,2013-06-28 15:06:00,
2013-06-28 10:11:00,86.7,79.4,29.90,West,266,4.0,6.0,79,0.00,,,0.00,Wunderground v.1.15,2013-06-28 15:11:00,
2013-06-28 10:16:00,87.1,79.4,29.89,NNW,328,3.0,7.0,78,0.00,,,0.00,Wunderground v.1.15,2013-06-28 15:16:00,
2013-06-28 10:21:00,87.2,79.1,29.89,North,9,5.0,7.0,77,0.00,,,0.00,Wunderground v.1.15,2013-06-28 15:21:00,
2013-06-28 10:26:00,87.5,79.0,29.89,WNW,296,3.0,7.0,76,0.00,,,0.00,Wunderground v.1.15,2013-06-28 15:26:00,
2013-06-28 10:31:00,87.7,79.2,29.89,WNW,288,5.0,8.0,76,0.00,,,0.00,Wunderground v.1.15,2013-06-28 15:31:00,
2013-06-28 10:36:00,87.6,78.3,29.90,WNW,291,7.0,11.0,74,0.00,,,0.00,Wunderground v.1.15,2013-06-28 15:36:00,
2013-06-28 10:41:00,87.4,78.5,29.89,NW,316,4.0,10.0,75,0.00,,,0.00,Wunderground v.1.15,2013-06-28 15:41:00,
2013-06-28 10:46:00,87.5,78.6,29.89,WNW,290,5.0,10.0,75,0.00,,,0.00,Wunderground v.1.15,2013-06-28 15:46:00,
2013-06-28 10:52:00,88.2,79.7,29.89,West,280,6.0,9.0,76,0.00,,,0.00,Wunderground v.1.15,2013-06-28 15:52:00,
2013-06-28 10:57:00,88.3,78.5,29.89,WNW,291,9.0,9.0,73,0.00,,,0.00,Wunderground v.1.15,2013-06-28 15:57:00,
2013-06-28 11:02:00,88.5,78.7,29.89,WNW,282,6.0,10.0,73,0.00,,,0.00,Wunderground v.1.15,2013-06-28 16:02:00,
2013-06-28 11:07:00,88.6,78.8,29.89,WNW,284,8.0,10.0,73,0.00,,,0.00,Wunderground v.1.15,2013-06-28 16:07:00,
2013-06-28 11:12:00,88.9,78.7,29.90,SW,226,4.0,12.0,72,0.00,,,0.00,Wunderground v.1.15,2013-06-28 16:12:00,
2013-06-28 11:17:00,88.6,78.8,29.90,NW,304,4.0,14.0,73,0.00,,,0.00,Wunderground v.1.15,2013-06-28 16:17:00,
2013-06-28 11:22:00,89.0,79.6,29.90,WNW,294,7.0,8.0,74,0.00,,,0.00,Wunderground v.1.15,2013-06-28 16:22:00,
2013-06-28 11:27:00,89.5,79.7,29.90,WNW,297,5.0,8.0,73,0.00,,,0.00,Wunderground v.1.15,2013-06-28 16:27:00,
2013-06-28 11:32:00,89.9,79.2,29.90,SW,232,6.0,6.0,71,0.00,,,0.00,Wunderground v.1.15,2013-06-28 16:32:00,
2013-06-28 11:37:00,90.1,78.6,29.90,West,280,7.0,10.0,69,0.00,,,0.00,Wunderground v.1.15,2013-06-28 16:37:00,
2013-06-28 11:42:00,89.8,79.1,29.90,NW,315,5.0,9.0,71,0.00,,,0.00,Wunderground v.1.15,2013-06-28 16:42:00,
2013-06-28 11:47:00,89.8,78.7,29.89,North,356,5.0,9.0,70,0.00,,,0.00,Wunderground v.1.15,2013-06-28 16:47:00,
2013-06-28 11:52:00,90.0,78.5,29.89,NW,317,5.0,12.0,69,0.00,,,0.00,Wunderground v.1.15,2013-06-28 16:52:00,
2013-06-28 11:57:00,89.9,79.2,29.89,WNW,300,7.0,12.0,71,0.00,,,0.00,Wunderground v.1.15,2013-06-28 16:57:00,
2013-06-28 12:02:00,90.1,78.6,29.89,WNW,296,5.0,9.0,69,0.00,,,0.00,Wunderground v.1.15,2013-06-28 17:02:00,
2013-06-28 12:07:00,90.6,79.0,29.88,North,359,4.0,9.0,69,0.00,,,0.00,Wunderground v.1.15,2013-06-28 17:07:00,
2013-06-28 12:12:00,90.8,78.3,29.88,NW,304,7.0,10.0,67,0.00,,,0.00,Wunderground v.1.15,2013-06-28 17:12:00,
2013-06-28 12:17:00,90.5,78.0,29.88,WNW,287,7.0,11.0,67,0.00,,,0.00,Wunderground v.1.15,2013-06-28 17:17:00,
2013-06-28 12:22:00,90.4,78.4,29.87,West,276,5.0,10.0,68,0.00,,,0.00,Wunderground v.1.15,2013-06-28 17:22:00,
2013-06-28 12:27:00,90.5,78.5,29.87,North,6,6.0,12.0,68,0.00,,,0.00,Wunderground v.1.15,2013-06-28 17:27:00,
2013-06-28 12:32:00,90.8,78.8,29.87,NNW,336,7.0,11.0,68,0.00,,,0.00,Wunderground v.1.15,2013-06-28 17:32:00,
2013-06-28 12:37:00,91.4,78.0,29.87,NW,304,6.0,12.0,65,0.00,,,0.00,Wunderground v.1.15,2013-06-28 17:37:00,
2013-06-28 12:42:00,91.5,78.1,29.86,West,266,8.0,10.0,65,0.00,,,0.00,Wunderground v.1.15,2013-06-28 17:42:00,
2013-06-28 12:47:00,91.4,77.5,29.86,NW,322,3.0,11.0,64,0.00,,,0.00,Wunderground v.1.15,2013-06-28 17:47:00,
2013-06-28 12:52:00,91.4,78.0,29.86,NW,309,2.0,6.0,65,0.00,,,0.00,Wunderground v.1.15,2013-06-28 17:52:00,
2013-06-28 12:57:00,91.5,77.1,29.86,WNW,291,8.0,12.0,63,0.00,,,0.00,Wunderground v.1.15,2013-06-28 17:57:00,
2013-06-28 13:02:00,91.1,77.2,29.86,NW,314,4.0,11.0,64,0.00,,,0.00,Wunderground v.1.15,2013-06-28 18:02:00,
2013-06-28 13:07:00,91.5,76.6,29.86,NW,312,6.0,11.0,62,0.00,,,0.00,Wunderground v.1.15,2013-06-28 18:07:00,
2013-06-28 13:12:00,91.8,76.4,29.86,WNW,295,8.0,11.0,61,0.00,,,0.00,Wunderground v.1.15,2013-06-28 18:12:00,
2013-06-28 13:17:00,92.2,78.3,29.86,NW,316,7.0,11.0,64,0.00,,,0.00,Wunderground v.1.15,2013-06-28 18:17:00,
2013-06-28 13:22:00,92.3,78.4,29.86,WNW,288,6.0,12.0,64,0.00,,,0.00,Wunderground v.1.15,2013-06-28 18:22:00,
2013-06-28 13:27:00,92.0,77.6,29.85,West,273,4.0,13.0,63,0.00,,,0.00,Wunderground v.1.15,2013-06-28 18:27:00,
2013-06-28 13:32:00,92.1,78.2,29.85,WNW,302,3.0,9.0,64,0.00,,,0.00,Wunderground v.1.15,2013-06-28 18:32:00,
2013-06-28 13:37:00,92.5,78.5,29.85,WNW,301,4.0,11.0,64,0.00,,,0.00,Wunderground v.1.15,2013-06-28 18:37:00,
2013-06-28 13:42:00,92.3,77.9,29.85,West,272,4.0,9.0,63,0.00,,,0.00,Wunderground v.1.15,2013-06-28 18:42:00,
2013-06-28 13:47:00,92.3,78.8,29.84,WNW,288,6.0,11.0,65,0.00,,,0.00,Wunderground v.1.15,2013-06-28 18:47:00,
2013-06-28 13:52:00,92.0,78.1,29.84,NW,304,7.0,12.0,64,0.00,,,0.00,Wunderground v.1.15,2013-06-28 18:52:00,
2013-06-28 13:57:00,92.3,78.4,29.84,WNW,300,7.0,12.0,64,0.00,,,0.00,Wunderground v.1.15,2013-06-28 18:57:00,
2013-06-28 14:02:00,92.5,78.5,29.84,WNW,300,5.0,10.0,64,0.00,,,0.00,Wunderground v.1.15,2013-06-28 19:02:00,
2013-06-28 14:07:00,92.5,77.6,29.84,NNW,336,4.0,10.0,62,0.00,,,0.00,Wunderground v.1.15,2013-06-28 19:07:00,
2013-06-28 14:12:00,92.5,77.6,29.84,West,276,3.0,8.0,62,0.00,,,0.00,Wunderground v.1.15,2013-06-28 19:12:00,
2013-06-28 14:17:00,92.8,78.3,29.84,West,271,3.0,11.0,63,0.00,,,0.00,Wunderground v.1.15,2013-06-28 19:17:00,
2013-06-28 14:22:00,93.3,81.2,29.83,West,274,5.0,8.0,68,0.00,,,0.00,Wunderground v.1.15,2013-06-28 19:22:00,
2013-06-28 14:27:00,93.3,81.2,29.83,WSW,253,6.0,8.0,68,0.00,,,0.00,Wunderground v.1.15,2013-06-28 19:27:00,
2013-06-28 14:32:00,92.6,80.9,29.83,WSW,252,4.0,8.0,69,0.00,,,0.00,Wunderground v.1.15,2013-06-28 19:32:00,
2013-06-28 14:37:00,92.7,81.9,29.82,WSW,249,4.0,10.0,71,0.00,,,0.00,Wunderground v.1.15,2013-06-28 19:37:00,
2013-06-28 14:42:00,92.6,80.9,29.82,WSW,248,8.0,10.0,69,0.00,,,0.00,Wunderground v.1.15,2013-06-28 19:42:00,
2013-06-28 14:47:00,92.5,80.8,29.82,WSW,240,5.0,10.0,69,0.00,,,0.00,Wunderground v.1.15,2013-06-28 19:47:00,
2013-06-28 14:52:00,92.8,80.2,29.82,WNW,290,5.0,8.0,67,0.00,,,0.00,Wunderground v.1.15,2013-06-28 19:52:00,
2013-06-28 14:57:00,92.7,81.9,29.81,WSW,256,5.0,8.0,71,0.00,,,0.00,Wunderground v.1.15,2013-06-28 19:57:00,
2013-06-28 15:02:00,93.0,82.2,29.81,West,267,2.0,6.0,71,0.00,,,0.00,Wunderground v.1.15,2013-06-28 20:02:00,
2013-06-28 15:07:00,93.4,80.3,29.80,SW,221,2.0,6.0,66,0.00,,,0.00,Wunderground v.1.15,2013-06-28 20:07:00,
2013-06-28 15:12:00,93.2,77.7,29.80,SW,226,3.0,6.0,61,0.00,,,0.00,Wunderground v.1.15,2013-06-28 20:12:00,
2013-06-28 15:17:00,93.4,79.4,29.80,West,278,2.0,7.0,64,0.00,,,0.00,Wunderground v.1.15,2013-06-28 20:17:00,
2013-06-28 15:22:00,93.8,78.3,29.80,West,280,3.0,9.0,61,0.00,,,0.00,Wunderground v.1.15,2013-06-28 20:22:00,
2013-06-28 15:27:00,94.1,77.1,29.80,West,276,1.0,9.0,58,0.00,,,0.00,Wunderground v.1.15,2013-06-28 20:27:00,
2013-06-28 15:33:00,93.7,78.7,29.80,West,269,4.0,9.0,62,0.00,,,0.00,Wunderground v.1.15,2013-06-28 20:33:00,
2013-06-28 15:38:00,92.7,80.1,29.79,West,262,2.0,9.0,67,0.00,,,0.00,Wunderground v.1.15,2013-06-28 20:38:00,
2013-06-28 15:43:00,92.3,81.5,29.79,SSW,200,4.0,8.0,71,0.00,,,0.00,Wunderground v.1.15,2013-06-28 20:43:00,
2013-06-28 15:47:00,92.2,80.1,29.79,WNW,284,7.0,11.0,68,0.00,,,0.00,Wunderground v.1.15,2013-06-28 20:47:00,
2013-06-28 15:52:00,91.9,80.7,29.78,West,274,2.0,8.0,70,0.00,,,0.00,Wunderground v.1.15,2013-06-28 20:52:00,
2013-06-28 15:58:00,91.7,79.6,29.79,SW,231,8.0,8.0,68,0.00,,,0.00,Wunderground v.1.15,2013-06-28 20:58:00,
2013-06-28 16:03:00,92.2,80.1,29.78,WNW,296,4.0,5.0,68,0.00,,,0.00,Wunderground v.1.15,2013-06-28 21:03:00,
2013-06-28 16:08:00,92.1,80.0,29.79,WNW,286,8.0,8.0,68,0.00,,,0.00,Wunderground v.1.15,2013-06-28 21:08:00,
2013-06-28 16:13:00,92.8,78.8,29.78,WNW,288,6.0,8.0,64,0.00,,,0.00,Wunderground v.1.15,2013-06-28 21:13:00,
2013-06-28 16:18:00,93.4,78.9,29.78,WNW,285,9.0,9.0,63,0.00,,,0.00,Wunderground v.1.15,2013-06-28 21:18:00,
2013-06-28 16:23:00,93.4,78.4,29.78,West,273,3.0,11.0,62,0.00,,,0.00,Wunderground v.1.15,2013-06-28 21:23:00,
2013-06-28 16:28:00,93.4,77.9,29.78,West,281,6.0,11.0,61,0.00,,,0.00,Wunderground v.1.15,2013-06-28 21:28:00,
2013-06-28 16:33:00,93.0,78.5,29.78,WSW,258,1.0,11.0,63,0.00,,,0.00,Wunderground v.1.15,2013-06-28 21:33:00,
2013-06-28 16:38:00,92.7,78.7,29.78,West,277,7.0,12.0,64,0.00,,,0.00,Wunderground v.1.15,2013-06-28 21:38:00,
2013-06-28 16:43:00,93.1,79.6,29.78,West,268,5.0,8.0,65,0.00,,,0.00,Wunderground v.1.15,2013-06-28 21:43:00,
2013-06-28 16:48:00,92.9,79.4,29.78,West,271,5.0,8.0,65,0.00,,,0.00,Wunderground v.1.15,2013-06-28 21:48:00,
2013-06-28 16:53:00,92.7,77.8,29.78,West,267,4.0,6.0,62,0.00,,,0.00,Wunderground v.1.15,2013-06-28 21:53:00,
2013-06-28 16:58:00,92.1,79.1,29.78,WSW,250,1.0,10.0,66,0.00,,,0.00,Wunderground v.1.15,2013-06-28 21:58:00,
2013-06-28 17:03:00,91.9,78.4,29.78,West,271,2.0,6.0,65,0.00,,,0.00,Wunderground v.1.15,2013-06-28 22:03:00,
2013-06-28 17:08:00,91.9,78.9,29.78,SSW,193,2.0,7.0,66,0.00,,,0.00,Wunderground v.1.15,2013-06-28 22:08:00,
2013-06-28 17:13:00,91.7,78.7,29.78,WNW,297,2.0,7.0,66,0.00,,,0.00,Wunderground v.1.15,2013-06-28 22:13:00,
2013-06-28 17:18:00,91.8,79.3,29.77,WSW,244,3.0,7.0,67,0.00,,,0.00,Wunderground v.1.15,2013-06-28 22:18:00,
2013-06-28 17:23:00,92.0,78.5,29.77,West,278,2.0,11.0,65,0.00,,,0.00,Wunderground v.1.15,2013-06-28 22:23:00,
2013-06-28 17:28:00,91.7,78.7,29.77,SW,224,3.0,11.0,66,0.00,,,0.00,Wunderground v.1.15,2013-06-28 22:28:00,
2013-06-28 17:33:00,91.4,78.4,29.77,West,278,3.0,8.0,66,0.00,,,0.00,Wunderground v.1.15,2013-06-28 22:33:00,
2013-06-28 17:38:00,91.6,78.6,29.77,WSW,253,3.0,8.0,66,0.00,,,0.00,Wunderground v.1.15,2013-06-28 22:38:00,
2013-06-28 17:43:00,91.5,78.5,29.77,WNW,288,1.0,6.0,66,0.00,,,0.00,Wunderground v.1.15,2013-06-28 22:43:00,
2013-06-28 17:48:00,91.2,78.2,29.77,WNW,290,3.0,9.0,66,0.00,,,0.00,Wunderground v.1.15,2013-06-28 22:48:00,
2013-06-28 17:53:00,91.0,78.1,29.77,WSW,258,5.0,8.0,66,0.00,,,0.00,Wunderground v.1.15,2013-06-28 22:53:00,
2013-06-28 17:58:00,90.7,77.8,29.77,West,259,4.0,8.0,66,0.00,,,0.00,Wunderground v.1.15,2013-06-28 22:58:00,
2013-06-28 18:03:00,90.5,77.6,29.77,West,276,3.0,6.0,66,0.00,,,0.00,Wunderground v.1.15,2013-06-28 23:03:00,
2013-06-28 18:08:00,90.3,77.4,29.77,WSW,243,4.0,10.0,66,0.00,,,0.00,Wunderground v.1.15,2013-06-28 23:08:00,
2013-06-28 18:13:00,90.3,76.9,29.78,WNW,295,5.0,8.0,65,0.00,,,0.00,Wunderground v.1.15,2013-06-28 23:13:00,
2013-06-28 18:18:00,90.3,77.4,29.77,West,274,3.0,8.0,66,0.00,,,0.00,Wunderground v.1.15,2013-06-28 23:18:00,
2013-06-28 18:23:00,90.4,77.5,29.77,WSW,249,5.0,9.0,66,0.00,,,0.00,Wunderground v.1.15,2013-06-28 23:23:00,
2013-06-28 18:28:00,90.4,77.5,29.77,WSW,254,2.0,9.0,66,0.00,,,0.00,Wunderground v.1.15,2013-06-28 23:28:00,
2013-06-28 18:33:00,90.6,77.7,29.77,WSW,253,1.0,9.0,66,0.00,,,0.00,Wunderground v.1.15,2013-06-28 23:33:00,
2013-06-28 18:38:00,91.0,77.6,29.77,West,274,3.0,10.0,65,0.00,,,0.00,Wunderground v.1.15,2013-06-28 23:38:00,
2013-06-28 18:43:00,91.2,77.8,29.77,West,273,2.0,9.0,65,0.00,,,0.00,Wunderground v.1.15,2013-06-28 23:43:00,
2013-06-28 18:48:00,91.5,78.1,29.77,WSW,244,1.0,9.0,65,0.00,,,0.00,Wunderground v.1.15,2013-06-28 23:48:00,
2013-06-28 18:53:00,91.7,77.8,29.77,WNW,300,3.0,6.0,64,0.00,,,0.00,Wunderground v.1.15,2013-06-28 23:53:00,
2013-06-28 18:58:00,91.6,77.7,29.77,West,260,2.0,6.0,64,0.00,,,0.00,Wunderground v.1.15,2013-06-28 23:58:00,
2013-06-28 19:03:00,91.5,77.1,29.76,WNW,287,4.0,6.0,63,0.00,,,0.00,Wunderground v.1.15,2013-06-29 00:03:00,
2013-06-28 19:08:00,91.5,78.1,29.76,West,264,2.0,6.0,65,0.00,,,0.00,Wunderground v.1.15,2013-06-29 00:08:00,
2013-06-28 19:13:00,91.3,77.4,29.76,South,186,1.0,5.0,64,0.00,,,0.00,Wunderground v.1.15,2013-06-29 00:13:00,
2013-06-28 19:18:00,91.1,77.7,29.76,West,281,5.0,6.0,65,0.00,,,0.00,Wunderground v.1.15,2013-06-29 00:18:00,
2013-06-28 19:23:00,90.8,77.4,29.76,West,271,3.0,4.0,65,0.00,,,0.00,Wunderground v.1.15,2013-06-29 00:23:00,
2013-06-28 19:28:00,90.8,77.4,29.75,WSW,249,1.0,4.0,65,0.00,,,0.00,Wunderground v.1.15,2013-06-29 00:28:00,
2013-06-28 19:33:00,90.6,77.7,29.75,WNW,300,1.0,3.0,66,0.00,,,0.00,Wunderground v.1.15,2013-06-29 00:33:00,
2013-06-28 19:38:00,90.3,77.4,29.75,SW,233,4.0,4.0,66,0.00,,,0.00,Wunderground v.1.15,2013-06-29 00:38:00,
2013-06-28 19:43:00,89.9,77.5,29.75,WSW,256,1.0,3.0,67,0.00,,,0.00,Wunderground v.1.15,2013-06-29 00:43:00,
2013-06-28 19:48:00,89.6,77.2,29.75,SSW,207,0.0,3.0,67,0.00,,,0.00,Wunderground v.1.15,2013-06-29 00:48:00,
2013-06-28 19:53:00,89.2,77.3,29.75,West,271,2.0,4.0,68,0.00,,,0.00,Wunderground v.1.15,2013-06-29 00:53:00,
2013-06-28 19:59:00,88.9,77.0,29.75,WSW,250,2.0,5.0,68,0.00,,,0.00,Wunderground v.1.15,2013-06-29 00:59:00,
2013-06-28 20:04:00,88.7,77.2,29.75,West,268,2.0,4.0,69,0.00,,,0.00,Wunderground v.1.15,2013-06-29 01:04:00,
2013-06-28 20:09:00,88.5,77.0,29.75,WSW,237,1.0,4.0,69,0.00,,,0.00,Wunderground v.1.15,2013-06-29 01:09:00,
2013-06-28 20:14:00,88.4,77.4,29.75,WSW,256,1.0,4.0,70,0.00,,,0.00,Wunderground v.1.15,2013-06-29 01:14:00,
2013-06-28 20:19:00,88.3,77.3,29.75,WSW,250,2.0,4.0,70,0.00,,,0.00,Wunderground v.1.15,2013-06-29 01:19:00,
2013-06-28 20:24:00,88.1,77.1,29.75,West,270,4.0,5.0,70,0.00,,,0.00,Wunderground v.1.15,2013-06-29 01:24:00,
2013-06-28 20:29:00,88.1,77.1,29.75,West,270,2.0,5.0,70,0.00,,,0.00,Wunderground v.1.15,2013-06-29 01:29:00,
2013-06-28 20:34:00,88.0,77.0,29.75,WSW,243,1.0,2.0,70,0.00,,,0.00,Wunderground v.1.15,2013-06-29 01:34:00,
2013-06-28 20:39:00,88.0,77.0,29.75,West,268,1.0,4.0,70,0.00,,,0.00,Wunderground v.1.15,2013-06-29 01:39:00,
2013-06-28 20:44:00,87.8,77.2,29.75,WSW,249,0.0,3.0,71,0.00,,,0.00,Wunderground v.1.15,2013-06-29 01:44:00,
2013-06-28 20:49:00,87.6,77.5,29.76,WSW,257,1.0,3.0,72,0.00,,,0.00,Wunderground v.1.15,2013-06-29 01:49:00,
2013-06-28 20:54:00,87.5,77.4,29.76,West,266,2.0,4.0,72,0.00,,,0.00,Wunderground v.1.15,2013-06-29 01:54:00,
2013-06-28 20:59:00,87.4,77.7,29.76,West,278,3.0,4.0,73,0.00,,,0.00,Wunderground v.1.15,2013-06-29 01:59:00,
2013-06-28 21:04:00,87.4,77.7,29.76,West,267,1.0,4.0,73,0.00,,,0.00,Wunderground v.1.15,2013-06-29 02:04:00,
2013-06-28 21:09:00,87.3,78.0,29.76,West,276,2.0,4.0,74,0.00,,,0.00,Wunderground v.1.15,2013-06-29 02:09:00,
2013-06-28 21:14:00,87.1,77.8,29.76,West,270,2.0,4.0,74,0.00,,,0.00,Wunderground v.1.15,2013-06-29 02:14:00,
2013-06-28 21:19:00,87.0,77.7,29.76,West,268,3.0,5.0,74,0.00,,,0.00,Wunderground v.1.15,2013-06-29 02:19:00,
2013-06-28 21:24:00,87.0,77.3,29.77,WNW,300,4.0,5.0,73,0.00,,,0.00,Wunderground v.1.15,2013-06-29 02:24:00,
2013-06-28 21:29:00,87.0,77.3,29.77,West,274,2.0,5.0,73,0.00,,,0.00,Wunderground v.1.15,2013-06-29 02:29:00,
2013-06-28 21:34:00,87.1,77.4,29.78,West,271,2.0,5.0,73,0.00,,,0.00,Wunderground v.1.15,2013-06-29 02:34:00,
2013-06-28 21:39:00,87.1,77.0,29.78,West,271,3.0,6.0,72,0.00,,,0.00,Wunderground v.1.15,2013-06-29 02:39:00,
2013-06-28 21:44:00,87.0,76.9,29.78,WNW,291,5.0,5.0,72,0.00,,,0.00,Wunderground v.1.15,2013-06-29 02:44:00,
2013-06-28 21:49:00,87.1,77.0,29.78,West,266,2.0,5.0,72,0.00,,,0.00,Wunderground v.1.15,2013-06-29 02:49:00,
2013-06-28 21:54:00,87.1,76.5,29.78,NW,304,3.0,5.0,71,0.00,,,0.00,Wunderground v.1.15,2013-06-29 02:54:00,
2013-06-28 21:59:00,87.0,76.5,29.78,NW,310,2.0,5.0,71,0.00,,,0.00,Wunderground v.1.15,2013-06-29 02:59:00,
2013-06-28 22:04:00,86.8,76.7,29.79,NW,314,3.0,5.0,72,0.00,,,0.00,Wunderground v.1.15,2013-06-29 03:04:00,
2013-06-28 22:09:00,86.7,77.0,29.79,WNW,295,1.0,5.0,73,0.00,,,0.00,Wunderground v.1.15,2013-06-29 03:09:00,
2013-06-28 22:14:00,86.7,77.0,29.79,WNW,292,3.0,4.0,73,0.00,,,0.00,Wunderground v.1.15,2013-06-29 03:14:00,
2013-06-28 22:19:00,86.5,77.2,29.79,WNW,298,1.0,4.0,74,0.00,,,0.00,Wunderground v.1.15,2013-06-29 03:19:00,
2013-06-28 22:24:00,86.4,77.5,29.79,WNW,294,1.0,4.0,75,0.00,,,0.00,Wunderground v.1.15,2013-06-29 03:24:00,
2013-06-28 22:29:00,86.1,77.2,29.79,NW,309,1.0,4.0,75,0.00,,,0.00,Wunderground v.1.15,2013-06-29 03:29:00,
2013-06-28 22:34:00,85.9,77.5,29.80,NW,312,1.0,2.0,76,0.00,,,0.00,Wunderground v.1.15,2013-06-29 03:34:00,
2013-06-28 22:39:00,85.8,77.4,29.80,West,281,1.0,3.0,76,0.00,,,0.00,Wunderground v.1.15,2013-06-29 03:39:00,
2013-06-28 22:44:00,85.7,77.7,29.79,WNW,291,4.0,4.0,77,0.00,,,0.00,Wunderground v.1.15,2013-06-29 03:44:00,
2013-06-28 22:49:00,85.6,77.6,29.79,WNW,297,2.0,5.0,77,0.00,,,0.00,Wunderground v.1.15,2013-06-29 03:49:00,
2013-06-28 22:54:00,85.5,77.9,29.79,WNW,288,2.0,4.0,78,0.00,,,0.00,Wunderground v.1.15,2013-06-29 03:54:00,
2013-06-28 22:59:00,85.3,77.7,29.79,West,270,1.0,4.0,78,0.00,,,0.00,Wunderground v.1.15,2013-06-29 03:59:00,
2013-06-28 23:01:00,85.2,77.6,29.79,West,272,1.0,2.0,78,0.00,,,0.00,Wunderground v.1.15,2013-06-29 04:01:00,
2013-06-28 23:06:00,85.2,77.6,29.78,SSW,207,1.0,3.0,78,0.00,,,0.00,Wunderground v.1.15,2013-06-29 04:06:00,
2013-06-28 23:11:00,85.1,77.5,29.78,SSW,205,0.0,1.0,78,0.00,,,0.00,Wunderground v.1.15,2013-06-29 04:11:00,
2013-06-28 23:16:00,85.2,77.2,29.79,NW,304,3.0,3.0,77,0.00,,,0.00,Wunderground v.1.15,2013-06-29 04:16:00,
2013-06-28 23:21:00,84.9,77.3,29.80,NW,314,2.0,4.0,78,0.00,,,0.00,Wunderground v.1.15,2013-06-29 04:21:00,
2013-06-28 23:26:00,84.8,77.6,29.79,West,280,3.0,4.0,79,0.00,,,0.00,Wunderground v.1.15,2013-06-29 04:26:00,
2013-06-28 23:31:00,85.0,77.4,29.79,West,277,2.0,3.0,78,0.00,,,0.00,Wunderground v.1.15,2013-06-29 04:31:00,
2013-06-28 23:36:00,85.2,77.2,29.79,WSW,253,3.0,3.0,77,0.00,,,0.00,Wunderground v.1.15,2013-06-29 04:36:00,
2013-06-28 23:41:00,85.4,77.4,29.79,WNW,293,5.0,5.0,77,0.00,,,0.00,Wunderground v.1.15,2013-06-29 04:41:00,
2013-06-28 23:46:00,85.5,77.1,29.78,West,273,2.0,5.0,76,0.00,,,0.00,Wunderground v.1.15,2013-06-29 04:46:00,
2013-06-28 23:51:00,85.6,77.2,29.78,WSW,248,1.0,3.0,76,0.00,,,0.00,Wunderground v.1.15,2013-06-29 04:51:00,
2013-06-28 23:56:00,85.7,77.3,29.78,West,278,5.0,5.0,76,0.00,,,0.00,Wunderground v.1.15,2013-06-29 04:56:00,